[[{"header":{"parameterUnit":"m.s-1","parameterCategory":1,"la1":30.2991,"la2":30.254,"lo1":-89.0895,"lo2":-89.0444,"dy":0.0017,"dx":0.0017,"nx":28,"ny":28,"refTime":"2025-05-29T09:00:00:Z","depth":0,"parameterNumber":2,"parameterNumberName":"U-component_of_WINDS"},"data":[0,0,0,0,0,0,0,0,0,0,0,0,0,0,0,0,0,0,0,0,0,0,0,0,0,0,0,0,0,0,0,0,0,0,0,0,0,0,0,0,0,0,0,0,0,0,0,0,0,0,0,0,0,0,0,0,0,0,1.8743,1.8743,0,1.8764,1.8764,1.8764,1.8757,1.8757,1.8756,1.8756,1.8776,1.8777,1.8778,0,0,0,0,0,0,0,0,0,0,0,0,0,1.8697,1.8698,1.8743,1.8743,1.8743,1.8764,1.8764,1.8765,1.8757,1.8757,1.8756,1.8756,1.8776,1.8777,1.8778,0,0,0,0,0,0,0,0,0,0,0,0,0,1.8717,1.8698,1.8743,1.8742,1.8742,1.8764,1.8764,1.8765,1.8757,1.8757,1.8756,1.8755,1.8776,1.8777,1.8778,1.8801,0,0,1.8783,1.8784,0,0,0,0,0,0,0,0,1.8716,1.8719,1.8742,1.8742,1.8743,1.8757,1.8756,1.8777,1.8757,1.8752,1.8756,1.8755,1.877,1.8772,1.8778,1.8802,1.8803,1.8783,1.8784,1.8785,1.8785,0,0,0,0,0,0,0,1.8715,1.8718,1.8751,1.8742,1.8743,1.8741,1.8743,1.876,1.8765,1.8752,1.8752,1.8754,1.877,1.8776,1.8778,1.8804,1.8783,1.8784,1.8785,1.8786,1.885,1.885,0,0,0,0,0,0,1.8713,1.8717,1.8751,1.8752,1.8727,1.8743,1.8745,1.8753,1.8764,1.8765,1.8755,1.8754,1.8774,1.8776,1.8779,1.8807,1.8785,1.8786,1.8787,1.8849,1.885,1.8851,0,0,0,0,0,0,1.8712,1.8716,1.875,1.8734,1.8738,1.8744,1.8753,1.8754,1.876,1.8767,1.8767,1.876,1.8774,1.8777,1.8796,1.8808,1.8787,1.8788,1.8848,1.8849,1.885,1.8864,0,0,0,0,0,0,1.8711,1.8716,1.8724,1.8735,1.8739,1.8767,1.8754,1.8755,1.8763,1.8761,1.8771,1.8772,1.8773,1.8794,1.8798,1.8809,1.8789,1.8847,1.8848,1.885,1.8862,1.8865,1.8868,0,0,0,0,0,1.8709,1.8727,1.8725,1.8729,1.875,1.8767,1.877,1.8771,1.8763,1.8772,1.8777,1.8772,1.8806,1.8796,1.88,1.8812,1.8846,1.8848,1.885,1.8861,1.8864,1.8868,0,0,0,0,0,0,1.8717,1.8728,1.8726,1.8747,1.8757,1.8766,1.8777,1.8775,1.8786,1.8784,1.8785,1.8787,1.8807,1.8812,1.8801,1.8836,1.8825,1.8828,1.8832,1.8836,1.8838,1.8836,1.879,0,0,0,0,0,1.8721,1.8735,1.8743,1.8761,1.8766,1.8771,1.8778,1.8779,1.8788,1.8792,1.8798,1.8807,1.882,1.8828,1.884,1.8863,1.8866,1.8874,1.8877,1.8879,1.8881,1.8894,1.8898,1.8857,1.8857,1.8857,0,0,1.873,1.8738,1.8746,1.8763,1.877,1.8784,1.8774,1.8789,1.8799,1.8794,1.8813,1.8818,1.8828,1.885,1.886,1.8854,1.8893,1.8881,1.8883,1.8884,1.8897,1.8901,1.8904,1.8858,1.8858,1.8858,0,0,1.8753,1.876,1.8776,1.8784,1.8795,1.8799,1.8803,1.8813,1.8817,1.8836,1.8833,1.8845,1.8867,1.8875,1.8882,1.891,1.8907,1.8914,1.8928,1.8942,1.8945,1.8948,1.8958,1.8962,1.8917,1.8917,1.8917,0,1.8762,1.8783,1.8785,1.88,1.8808,1.8805,1.8822,1.883,1.8844,1.885,1.8844,1.8873,1.8879,1.8903,1.8911,1.8916,1.8921,1.8912,1.8944,1.8947,1.895,1.896,1.8964,1.8917,1.8917,1.8917,1.8917,0,1.8794,1.8808,1.882,1.8835,1.8845,1.8861,1.8866,1.8875,1.8875,1.888,1.89,1.8908,1.8923,1.8929,1.8928,1.8953,1.8949,1.8944,1.8933,1.8955,1.8964,1.8968,1.8919,1.8918,1.8918,1.8918,0,0,1.882,1.8838,1.8842,1.8849,1.8863,1.8874,1.8891,1.8906,1.8914,1.8925,1.8939,1.8959,1.8954,1.8962,1.8963,1.8975,1.8998,1.8968,1.8968,1.8973,1.9026,1.903,1.9034,1.8996,1.8997,1.8997,1.9025,0,1.8844,1.8873,1.8876,1.8902,1.8916,1.8915,1.893,1.894,1.8945,1.8958,1.8963,1.8977,1.897,1.8975,1.8987,1.8992,1.9008,1.899,1.9009,1.9009,1.9006,1.9039,1.9043,1.9069,1.9029,1.903,1.903,0,1.8875,1.8888,1.8916,1.8929,1.8935,1.8948,1.8962,1.8975,1.8987,1.899,1.9,1.8999,1.9017,1.9006,1.9031,1.9019,1.9027,1.9031,1.9032,1.9033,1.902,1.9041,1.9077,1.9081,1.9036,1.9035,1.9035,0,1.8892,1.8916,1.8936,1.8943,1.8958,1.8968,1.8975,1.8986,1.8995,1.9008,1.9014,1.9029,1.9037,1.9048,1.9053,1.9044,1.9077,1.9066,1.908,1.908,1.9086,1.9086,1.9124,1.9092,1.9092,1.9092,1.9092,0,1.8918,1.8935,1.8944,1.8956,1.8976,1.898,1.8999,1.9006,1.9016,1.903,1.903,1.9043,1.9048,1.9062,1.9065,1.9085,1.9089,1.9092,1.9092,1.9091,1.9091,1.9096,1.9094,1.9093,1.9093,1.9093,1.9092,0,1.8939,1.8946,1.8968,1.8981,1.8985,1.8999,1.9011,1.9023,1.9029,1.9047,1.9051,1.906,1.9076,1.9082,1.9102,1.9104,1.9128,1.9127,1.9124,1.9124,1.9137,1.9136,1.9179,1.9186,1.915,1.9151,1.9151,0,1.8955,1.8968,1.8984,1.8993,1.9001,1.9016,1.9026,1.9032,1.9042,1.9058,1.9068,1.9085,1.9098,1.9125,1.9133,1.9149,1.9148,1.9163,1.915,1.915,1.9148,1.9147,1.9149,1.9164,1.9165,1.9165,1.9165,0,1.8982,1.8985,1.9,1.9016,1.9028,1.9041,1.9053,1.9061,1.9069,1.908,1.9098,1.9109,1.913,1.9147,1.9163,1.917,1.9169,1.9169,1.9173,1.9172,1.917,1.9172,1.913,1.9168,1.9168,1.9168,1.9167,1.9167,1.9001,1.9013,1.9027,1.9043,1.9054,1.9066,1.9078,1.9086,1.9101,1.9119,1.9122,1.9141,1.9154,1.9176,1.9184,1.9199,1.9195,1.9201,1.9202,1.9203,1.9205,1.9168,1.9202,1.9202,1.9202,1.9202,1.9202,0,1.9028,1.9038,1.9053,1.9071,1.9084,1.9084,1.9098,1.9109,1.9126,1.9139,1.9153,1.9173,1.919,1.92,1.9217,1.9228,1.9228,1.9232,1.9231,1.9233,1.9207,1.9202,1.9232,1.9232,1.9232,1.9232,1.9232,1.9232,1.9044,1.9065,1.907,1.9097,1.9106,1.9125,1.9134,1.9145,1.9155,1.9179,1.9193,1.92,1.9212,1.9231,1.9246,1.9249,1.9255,1.926,1.9262,1.9237,1.9234,1.9231,1.9227,1.9261,1.9261,1.9286,1.9286,1.9287]},{"header":{"parameterUnit":"m.s-1","parameterCategory":1,"la1":30.2991,"la2":30.254,"lo1":-89.0895,"lo2":-89.0444,"dy":0.0017,"dx":0.0017,"nx":28,"ny":28,"refTime":"2025-05-29T09:00:00:Z","depth":0,"parameterNumber":3,"parameterNumberName":"V-component_of_WINDS"},"data":[0,0,0,0,0,0,0,0,0,0,0,0,0,0,0,0,0,0,0,0,0,0,0,0,0,0,0,0,0,0,0,0,0,0,0,0,0,0,0,0,0,0,0,0,0,0,0,0,0,0,0,0,0,0,0,0,0,0,0.7561,0.7562,0,0.7569,0.7569,0.7569,0.7578,0.7578,0.7579,0.7579,0.7587,0.7587,0.7587,0,0,0,0,0,0,0,0,0,0,0,0,0,0.7557,0.7557,0.7561,0.7562,0.7562,0.7569,0.7569,0.7569,0.7578,0.7578,0.7579,0.7579,0.7587,0.7587,0.7587,0,0,0,0,0,0,0,0,0,0,0,0,0,0.7561,0.7557,0.7561,0.7567,0.7568,0.7569,0.7569,0.7569,0.7578,0.7578,0.7579,0.7579,0.7587,0.7587,0.7587,0.7583,0,0,0.7587,0.7587,0,0,0,0,0,0,0,0,0.7561,0.7561,0.7566,0.7567,0.7567,0.7573,0.757,0.7574,0.7578,0.7574,0.7579,0.7579,0.7582,0.7582,0.7583,0.7583,0.7584,0.7587,0.7587,0.7587,0.7587,0,0,0,0,0,0,0,0.7561,0.7561,0.7564,0.7566,0.7567,0.757,0.7571,0.7571,0.7577,0.7575,0.7575,0.7576,0.7582,0.7583,0.7584,0.7584,0.7587,0.7587,0.7587,0.7587,0.7583,0.7583,0,0,0,0,0,0,0.7559,0.7561,0.7564,0.7565,0.7565,0.757,0.7571,0.7571,0.7577,0.7578,0.7576,0.7576,0.7583,0.7583,0.7584,0.7581,0.7587,0.7587,0.7587,0.7583,0.7583,0.7583,0,0,0,0,0,0,0.7559,0.756,0.7564,0.7563,0.7564,0.757,0.757,0.7571,0.7572,0.7578,0.7579,0.7575,0.7583,0.7584,0.7584,0.7581,0.7587,0.7587,0.7584,0.7583,0.7583,0.7574,0,0,0,0,0,0,0.7559,0.756,0.7557,0.7563,0.7564,0.7563,0.757,0.7571,0.7572,0.7573,0.7578,0.7579,0.7583,0.7583,0.7584,0.7581,0.7588,0.7584,0.7584,0.7583,0.7574,0.7573,0.7572,0,0,0,0,0,0.7559,0.7554,0.7557,0.7558,0.7561,0.7563,0.7563,0.7568,0.7572,0.757,0.7574,0.7579,0.7582,0.7583,0.7584,0.7581,0.7584,0.7584,0.7583,0.7575,0.7573,0.7572,0,0,0,0,0,0,0.7548,0.7555,0.7558,0.7555,0.7558,0.7564,0.7562,0.7566,0.7569,0.7569,0.7576,0.7577,0.7576,0.7579,0.7581,0.7579,0.7584,0.7583,0.7577,0.7576,0.7575,0.7574,0.7588,0,0,0,0,0,0.7545,0.7545,0.7552,0.7548,0.755,0.7556,0.7556,0.756,0.7564,0.7565,0.7569,0.7573,0.7575,0.7575,0.7577,0.7575,0.7577,0.7574,0.7573,0.7572,0.7572,0.7572,0.7571,0.7582,0.7582,0.7582,0,0,0.754,0.7544,0.7543,0.7546,0.7549,0.755,0.7557,0.7557,0.7557,0.7565,0.7565,0.7569,0.7573,0.7572,0.7572,0.7575,0.757,0.7572,0.7571,0.7571,0.7572,0.7571,0.757,0.7581,0.7582,0.7582,0,0,0.7529,0.7532,0.753,0.7533,0.7538,0.7542,0.7542,0.7547,0.755,0.755,0.7557,0.7558,0.7561,0.7564,0.7566,0.756,0.7564,0.756,0.7555,0.7555,0.7554,0.7554,0.7552,0.7551,0.756,0.756,0.756,0,0.7521,0.7522,0.7528,0.7528,0.753,0.7538,0.7537,0.754,0.7545,0.7546,0.7549,0.7554,0.7557,0.7558,0.7556,0.7558,0.7558,0.7559,0.7554,0.7553,0.7553,0.7551,0.755,0.7559,0.756,0.756,0.756,0,0.7513,0.7513,0.7511,0.7516,0.7518,0.7517,0.7524,0.7526,0.753,0.7535,0.7536,0.7541,0.7545,0.7545,0.7549,0.7547,0.7549,0.7553,0.7557,0.7551,0.755,0.7549,0.7559,0.7559,0.7559,0.7559,0,0,0.7493,0.7504,0.7503,0.7506,0.7513,0.7513,0.7514,0.7518,0.7519,0.7523,0.7524,0.7527,0.7532,0.7534,0.7539,0.7539,0.7535,0.7544,0.7544,0.7542,0.7534,0.7531,0.753,0.7539,0.7539,0.7538,0.7534,0,0.7484,0.7485,0.7492,0.7491,0.7492,0.7501,0.7502,0.7507,0.7512,0.7514,0.752,0.7522,0.7527,0.7529,0.753,0.7535,0.7534,0.7536,0.754,0.754,0.7538,0.7529,0.7525,0.752,0.7533,0.7533,0.7533,0,0.7472,0.7476,0.7476,0.7484,0.7485,0.7485,0.7491,0.7493,0.7499,0.7503,0.7506,0.7512,0.7515,0.752,0.7523,0.7525,0.7527,0.7531,0.7531,0.7531,0.7536,0.7529,0.7519,0.7518,0.7532,0.7532,0.7532,0,0.7459,0.7464,0.7465,0.7467,0.7477,0.7477,0.7481,0.7488,0.749,0.7495,0.7497,0.7502,0.7505,0.7509,0.7517,0.752,0.752,0.7525,0.7523,0.7523,0.7522,0.7522,0.7512,0.7524,0.7524,0.7524,0.7524,0,0.7447,0.7446,0.7459,0.7459,0.7459,0.7468,0.7468,0.7474,0.748,0.7482,0.749,0.7492,0.7503,0.7506,0.7512,0.7515,0.7516,0.7519,0.7521,0.7518,0.7518,0.752,0.752,0.7524,0.7524,0.7524,0.7524,0,0.7431,0.7439,0.7441,0.7451,0.7453,0.7453,0.7462,0.7463,0.7469,0.7472,0.7473,0.7483,0.7488,0.7497,0.7504,0.7508,0.7509,0.7512,0.7507,0.7508,0.7506,0.7506,0.7496,0.7496,0.7508,0.7508,0.7508,0,0.7423,0.7422,0.7433,0.7435,0.7439,0.7442,0.7446,0.7455,0.7458,0.7467,0.7467,0.7473,0.7478,0.7485,0.7493,0.7499,0.7502,0.7499,0.7503,0.7501,0.7503,0.7502,0.7503,0.7497,0.7497,0.7497,0.7497,0,0.7407,0.7412,0.7416,0.7422,0.7425,0.7431,0.7436,0.7438,0.7449,0.7452,0.7458,0.7462,0.747,0.7475,0.7483,0.7488,0.7495,0.7496,0.7496,0.7493,0.749,0.7492,0.7504,0.7495,0.7496,0.7496,0.7496,0.7496,0.7394,0.7395,0.7403,0.7408,0.7414,0.7419,0.7422,0.7429,0.7433,0.7441,0.7447,0.7452,0.746,0.7471,0.7476,0.7481,0.7484,0.7484,0.7483,0.7483,0.7482,0.749,0.7482,0.7483,0.7483,0.7483,0.7483,0,0.7379,0.7385,0.739,0.7398,0.7402,0.7409,0.7416,0.742,0.7424,0.7431,0.7437,0.7444,0.745,0.746,0.7467,0.7469,0.7472,0.7471,0.747,0.7472,0.7479,0.7479,0.7468,0.7468,0.7468,0.7468,0.7468,0.7468,0.7372,0.7374,0.738,0.7386,0.7392,0.7397,0.7401,0.7407,0.7413,0.7421,0.7426,0.7433,0.7442,0.745,0.7457,0.7459,0.7462,0.7459,0.7463,0.7469,0.7471,0.7472,0.7472,0.7459,0.7459,0.7455,0.7455,0.7454]}]]